Skip Page Navigation
NASA JPL Caltech
NASA Logo - Jet Propulsion Laboratory + View the NASA Portal
+ Center for Near-Earth Object Studies
JPL Home Earth Solar System Stars & Galaxies Technology
JPL Solar System Dynamics
BODIES ORBITS EPHEMERIDES TOOLS PHYSICAL DATA DISCOVERY FAQ SITE MAP
JPL Small-Body Database Browser
Search: [ help ]  
123063 (2000 SL303)
Classification: Main-belt Asteroid          SPK-ID: 2123063
Ephemeris | Orbit Diagram | Orbital Elements | Mission Design | Physical Parameters | Discovery Circumstances | Close-Approach Data ]

[ show orbit diagram ]
Orbital Elements at Epoch 2459000.5 (2020-May-31.0) TDB
Reference: JPL 25 (heliocentric ecliptic J2000)
 Element Value Uncertainty (1-sigma)   Units 
e .1096496449299199 4.4738e-08  
a 2.693419801816262 1.9902e-08 au
q 2.398087276899894 1.2771e-07 au
i 11.0400775493128 4.7699e-06 deg
node 218.3721836401286 2.5017e-05 deg
peri 25.41710874041698 3.5479e-05 deg
M 283.0497840191755 2.7876e-05 deg
tp 2459345.613415854949
(2021-May-11.11341585)
0.00012708 TDB
period 1614.561156511134
4.42
1.7895e-05
4.899e-08
d
yr
n .2229708045113109 2.4713e-09 deg/d
Q 2.988752326732631 2.2084e-08 au
  Orbit Determination Parameters
   # obs. used (total)      647  
   data-arc span      7619 days (20.86 yr)  
   first obs. used      1999-06-14  
   last obs. used      2020-04-23  
   planetary ephem.      DE431  
   SB-pert. ephem.      SB431-N16  
   condition code      0  
   norm. resid. RMS      .54993  
   source      ORB  
   producer      Otto Matic  
   solution date      2020-May-20 20:56:39  

Additional Information
 Earth MOID = 1.39079 au 
 Jupiter MOID = 2.01987 au 
 T_jup = 3.336 
[ show covariance matrix ]

Ephemeris | Orbit Diagram | Orbital Elements | Mission Design | Physical Parameters | Discovery Circumstances | Close-Approach Data ]

Physical Parameter Table
Parameter Symbol Value Units Sigma Reference Notes
absolute magnitude H 15.3   n/a MPO320392  

123063 (2000 SL303)          Discovered 2000-Sep-28 by LINEAR at Socorro
Reference: 20060314/Numbers.arcLast Updated: 2006-03-23

[ show close-approach data ]
Alternate Designations
 2000 SL303 = 2003 FJ16 
Ephemeris | Orbit Diagram | Orbital Elements | Mission Design | Physical Parameters | Discovery Circumstances | Close-Approach Data ]
ABOUT SSD CREDITS/AWARDS PRIVACY/COPYRIGHT GLOSSARY LINKS
FirstGov 2020-Oct-25 21:41 UT
(server date/time)  
NASA Home Page
Site Manager:   Ryan S. Park
Webmaster  Alan B. Chamberlin